Sierra Vista, AZ

3:49 AM MST on May 28, 2017 (GMT -0700)
Sierra Vista Municipal-Libby Army Air Field

Weather History for KFHU - November, 2014

Change the Weather History Date:

Wednesday, November 26, 2014

  Actual Average Record
Temperature  
Mean Temperature 53 °F -  
Max Temperature 69 °F 62 °F 77 °F (1997)
Min Temperature 37 °F 40 °F 22 °F (1992)
Degree Days  
Heating Degree Days 12    
Growing Degree Days 3 (Base 50)    
Moisture  
Dew Point 10 °F    
Average Humidity 20    
Maximum Humidity 34    
Minimum Humidity 10    
Precipitation  
Precipitation 0.00 in - - ()
Sea Level Pressure  
Sea Level Pressure 30.27 in    
Wind  
Wind Speed 3 mph (SE)    
Max Wind Speed 9 mph    
Max Gust Speed -    
Visibility 10 miles    
Events      
Averages and records for this station are not official NWS values.
T = Trace of Precipitation, MM = Missing Value Source: NWS Daily Summary

Daily Weather History Graph

Daily Weather History Graph

Search for Another Location

Airport or City:

Trip Planner

Search our weather history database for the weather conditions in past years. The results will help you decide how hot, cold, wet, or windy it might be!

Date:

Astronomy

Nov. 26, 2014 Rise Set
Actual Time 6:58 AM MST 5:18 PM MST
Civil Twilight 6:32 AM MST 5:44 PM MST
Nautical Twilight 6:02 AM MST 6:14 PM MST
Astronomical Twilight 5:33 AM MST 6:43 PM MST
Moon 10:38 AM MST (11/26) 9:47 PM MST (11/26)
Length of Visible Light 11h 11m
Length of Day
10h 19m
Waxing Crescent, 22% of the Moon is Illuminated
Nov 26
Waxing Crescent
Nov 29
First Quarter
Dec 6
Full
Dec 14
Last Quarter
Dec 21
New

Hourly Weather History & Observations

Time (MST) Temp. Windchill Dew Point Humidity Pressure Visibility Wind Dir Wind Speed Gust Speed Precip Events Conditions
12:56 AM 37.0 °F 34.5 °F 1.9 °F 23% 30.32 in 10.0 mi South 3.5 mph - N/A   Clear
1:56 AM 37.9 °F 35.5 °F 1.9 °F 22% 30.31 in 10.0 mi South 3.5 mph - N/A   Clear
2:56 AM 39.0 °F 36.8 °F 1.9 °F 21% 30.30 in 10.0 mi SSW 3.5 mph - N/A   Clear
3:56 AM 41.0 °F - -0.0 °F 18% 30.28 in 10.0 mi Calm Calm - N/A   Clear
4:56 AM 42.1 °F 40.2 °F 1.0 °F 18% 30.28 in 10.0 mi ESE 3.5 mph - N/A   Clear
5:55 AM 37.4 °F - 6.8 °F 28% 30.32 in 10.0 mi Calm Calm - N/A   Clear
6:55 AM 37.4 °F 34.9 °F 5.0 °F 26% 30.32 in 10.0 mi SSE 3.5 mph - N/A   Clear
7:55 AM 44.6 °F - 3.2 °F 18% 30.33 in 10.0 mi Calm Calm - N/A   Clear
8:55 AM 51.8 °F - 3.2 °F 14% 30.33 in 10.0 mi Calm Calm - N/A   Clear
9:55 AM 57.2 °F - -0.4 °F 10% 30.32 in 10.0 mi East 3.5 mph - N/A   Clear
10:55 AM 62.6 °F - 6.8 °F 11% 30.29 in 10.0 mi East 5.8 mph - N/A   Clear
11:55 AM 64.4 °F - 10.4 °F 12% 30.26 in 10.0 mi East 9.2 mph - N/A   Clear
12:55 PM 68.0 °F - 12.2 °F 12% 30.23 in 10.0 mi ESE 6.9 mph - N/A   Clear
1:55 PM 69.8 °F - 12.2 °F 11% 30.22 in 10.0 mi East 5.8 mph - N/A   Clear
2:55 PM 69.8 °F - 14.0 °F 12% 30.20 in 10.0 mi NE 6.9 mph - N/A   Clear
3:55 PM 69.8 °F - 14.0 °F 12% 30.19 in 10.0 mi Calm Calm - N/A   Clear
4:55 PM 66.2 °F - 17.6 °F 15% 30.21 in 10.0 mi East 3.5 mph - N/A   Clear
5:55 PM 53.6 °F - 19.4 °F 26% 30.25 in 10.0 mi South 5.8 mph - N/A   Clear
6:55 PM 55.4 °F - 17.6 °F 23% 30.26 in 10.0 mi East 3.5 mph - N/A   Clear
7:55 PM 51.8 °F - 19.4 °F 28% 30.27 in 10.0 mi South 6.9 mph - N/A   Clear
8:55 PM 55.4 °F - 15.8 °F 21% 30.25 in 10.0 mi Calm Calm - N/A   Clear
9:55 PM 48.2 °F - 17.6 °F 30% 30.25 in 10.0 mi Calm Calm - N/A   Clear
10:56 PM 46.0 °F - 19.0 °F 34% 30.24 in 10.0 mi Calm Calm - N/A   Clear
11:56 PM 46.9 °F - 18.0 °F 32% 30.23 in 10.0 mi Calm Calm - N/A   Clear